Location: Castiglione Fibocchi
(43.5333°N, 11.7667°E)
Time: 09:56:34
(UTC+00:00)

IDEFIX/ARIANE 42P - Pass Details

Date: 15 August 2020
Orbit: 786 x 802 km, 98.4° (Epoch: 18 September)

Event Time Altitude Azimuth Distance (km) Brightness Sun altitude
Rises 03:22:25 0° 4° (N) 3,294 6.3 -9.9°
Reaches altitude 10° 03:24:57 10° 354° (N) 2,362 5.4 -9.6°
Maximum altitude 03:29:29 31° 294° (WNW) 1,358 3.5 -8.8°
Drops below altitude 10° 03:34:01 10° 233° (SW) 2,357 4.4 -8.1°
Enters shadow 03:34:09 - 232° (SW) 2,403 4.4 -8.1°
